Presure
207 214 218 207 206 182 191 191 202 186 190 178 176 189 173 172 192 187 186 194 200 216 181 183 178 163 173 167 131 188 165 189
217 226 212 202 177 214 227 219 193 209 213 206 214 180 192 193 190 189 203 211 211 182 217 180 172 176 172 175 172 188 125 195
218 232 121 218 222 213 213 217 219 223 215 210 212 213 217 216 216 221 216 220 226 180 227 226 203 187 174 197 173 190 185 178
115 79 84 210 226 216 208 161 188 212 222 225 223 223 214 214 214 213 202 229 205 203 181 207 226 225 159 189 169 176 166 183
373 375 268 262 138 250 213 125 216 214 218 202 217 216 207 193 222 208 190 224 206 220 218 216 196 207 202 214 199 150 211 177
321 322 191 151 280 251 266 223 234 217 223 209 215 218 216 194 218 226 217 223 227 201 213 203 195 218 215 210 210 259 227 213
314 302 308 260 304 289 257 234 226 162 233 215 220 226 229 214 212 214 214 214 207 219 215 200 210 191 198 215 224 207 249 208
290 185 199 254 297 273 296 303 250 225 203 223 216 213 222 220 222 217 220 216 228 221 218 208 210 210 219 235 240 254 234 200
282 296 302 288 276 268 170 291 289 191 283 239 241 213 212 222 210 228 224 222 213 210 216 222 216 237 236 229 252 263 247 187
258 269 250 248 269 256 156 164 261 262 266 172 216 217 213 214 207 210 215 215 208 183 214 219 225 246 241 239 235 291 343 297
248 250 141 257 265 205 262 227 261 267 249 259 252 244 204 214 217 254 257 228 217 177 227 221 232 273 290 248 312 317 296 296
237 244 253 187 246 250 177 242 217 256 254 251 251 193 275 280 206 237 220 212 235 266 242 269 256 282 246 280 296 321 286 262
241 244 258 263 251 250 249 250 240 249 243 243 244 261 240 236 190 263 246 248 262 258 250 273 317 275 324 265 265 256 254 222
240 251 248 248 260 249 251 257 245 248 244 251 249 251 240 240 243 240 248 253 168 249 257 279 291 364 252 249 260 250 243 238
252 249 238 240 245 239 245 239 233 241 233 243 241 233 245 250 243 245 244 230 240 249 260 295 299 274 243 245 246 235 241 251
251 235 249 260 241 244 250 252 251 252 252 253 253 252 236 239 238 238 245 257 255 260 280 327 302 240 230 230 230 220 215 233
246 245 246 246 245 238 237 239 239 240 246 228 227 236 238 239 236 236 252 245 245 308 283 313 264 240 233 219 222 207 209 234
284 282 303 288 296 261 272 275 273 260 268 261 243 243 237 238 243 261 268 290 297 279 303 290 239 226 222 219 228 210 214 220
259 262 267 273 278 273 265 262 266 271 270 265 270 276 284 286 282 282 279 278 252 274 291 271 239 227 215 235 215 238 198 225
Wind_Speed
98 93 87 84 94 88 96 100 104 93 97 80 74 91 61 58 84 70 71 78 77 62 52 54 56 58 59 61 38 52 53 51
95 96 96 94 56 84 81 93 96 100 97 100 92 81 99 95 80 76 88 81 79 45 63 51 58 58 54 54 55 56 59 53
86 101 36 93 89 92 91 86 89 89 93 95 96 93 85 84 85 82 81 74 68 50 67 61 62 47 47 49 51 55 55 55
27 11 18 96 92 95 95 62 75 87 86 85 87 88 90 86 83 84 65 72 77 61 50 68 67 70 51 47 59 62 60 60
63 68 82 79 43 90 100 45 88 93 90 81 84 88 86 70 79 84 60 77 66 75 72 72 57 65 61 65 59 66 67 61
67 68 58 58 84 86 87 87 92 88 90 90 85 87 86 75 85 82 83 80 78 69 74 69 56 70 68 61 62 58 60 65
59 64 63 57 60 77 82 91 95 58 94 91 91 90 84 89 87 79 88 83 77 79 76 62 66 62 64 67 67 61 59 65
52 51 49 61 56 51 61 61 62 95 74 93 88 85 83 82 89 87 87 86 82 80 78 72 71 65 67 70 68 66 63 58
20 28 51 44 37 51 54 56 58 52 74 76 69 81 85 85 80 87 82 84 79 76 76 75 73 75 67 68 70 67 68 67
24 29 42 46 41 52 45 48 60 61 60 53 61 85 84 85 73 75 80 77 77 66 76 75 75 76 68 67 66 73 54 62
41 38 51 38 35 43 44 48 56 61 69 69 69 81 67 78 75 77 77 85 79 60 75 75 74 75 70 65 59 55 49 48
52 55 47 50 50 44 49 55 54 60 68 66 69 59 65 60 77 68 72 76 73 71 66 71 67 64 61 48 42 41 40 51
61 57 51 57 53 51 53 61 64 66 67 67 67 61 67 72 65 58 70 70 63 62 66 67 67 52 44 40 35 41 48 46
61 65 55 50 45 49 57 63 65 64 66 69 62 61 61 64 61 66 67 66 54 61 58 60 59 47 45 49 38 43 49 55
63 65 50 53 53 54 56 57 59 63 64 60 62 66 64 60 64 62 55 67 63 57 61 64 47 43 46 44 44 42 36 33
69 59 67 62 60 62 60 57 58 58 59 59 58 58 62 61 65 67 61 66 63 62 62 49 43 51 48 48 47 45 49 34
71 69 66 63 60 60 60 62 62 62 62 57 60 62 63 64 65 65 68 61 50 51 54 42 46 51 50 55 55 53 55 45
49 57 62 63 62 67 69 68 69 70 67 60 68 70 68 68 71 75 66 55 49 48 43 42 56 56 55 61 62 52 50 45
36 37 38 40 43 45 49 53 53 54 56 60 59 59 56 55 53 51 48 40 49 44 42 48 60 59 61 58 51 52 48 42
Wind_Direction
264 252 249 255 251 264 258 260 258 263 259 264 268 267 272 270 270 270 272 272 273 272 254 250 246 266 263 278 275 280 270 286
259 250 253 257 276 251 250 251 260 257 258 259 259 268 266 266 270 272 269 266 267 262 269 248 250 253 262 265 271 267 268 279
274 253 253 250 249 250 250 251 252 252 255 257 259 260 261 263 264 264 264 262 261 253 267 264 274 258 251 257 264 264 269 273
250 244 291 262 251 251 259 259 258 259 253 254 257 258 261 262 264 265 268 264 269 262 261 272 267 267 266 266 266 267 269 266
261 254 262 254 268 253 257 246 264 260 257 268 258 261 264 270 262 267 267 265 271 265 267 268 272 277 270 271 264 269 256 263
257 260 235 265 251 247 244 251 251 252 255 263 259 257 260 270 264 265 266 267 266 273 268 274 274 270 273 272 268 267 248 250
242 254 256 259 252 250 247 250 251 257 250 258 256 257 258 262 265 265 270 272 273 269 270 274 267 261 269 272 271 263 261 256
241 261 251 245 249 253 256 247 249 250 262 252 260 261 259 259 258 262 263 269 267 268 270 269 275 274 273 273 272 273 261 254
255 249 248 254 246 260 267 240 243 262 248 250 252 261 261 255 265 259 262 264 272 275 273 271 274 274 274 271 276 275 265 263
240 239 245 243 239 245 242 264 240 243 243 250 252 254 257 257 264 268 268 271 267 260 272 273 272 275 276 273 272 275 256 252
265 245 240 239 237 244 233 238 241 239 244 246 245 246 258 259 259 257 257 266 267 268 271 272 276 276 279 273 273 260 244 245
251 257 249 241 237 232 244 236 241 237 239 245 247 259 258 257 259 256 261 265 266 265 268 271 274 278 271 264 262 244 235 231
249 249 250 242 239 234 235 235 239 238 244 248 252 253 255 257 264 256 257 260 263 264 268 278 278 271 256 244 240 232 231 244
250 242 250 252 252 237 240 241 243 247 250 251 251 253 256 257 256 258 261 261 267 269 276 283 274 264 238 241 226 230 233 236
245 248 253 254 251 254 252 246 250 244 249 249 251 253 256 258 256 262 267 260 263 267 273 278 263 225 232 235 230 232 231 242
246 256 253 252 253 258 254 251 252 253 254 254 255 256 255 258 258 261 268 268 267 272 274 270 232 225 228 231 231 242 240 243
247 254 255 257 258 261 262 263 265 267 265 257 257 261 259 261 262 264 271 265 262 271 261 250 210 215 222 230 229 242 247 235
252 256 259 260 262 257 262 263 264 262 263 263 261 261 260 263 268 268 268 272 262 255 264 227 208 219 219 227 221 244 244 234
262 265 266 265 264 263 264 268 269 270 270 267 269 270 269 266 268 268 268 258 244 250 241 211 204 211 227 217 239 227 248 225